Vertical_Velocity
5 3 0 -2 -4 1 -3 -1 3 0 0 1 3 -2 1 1 -4 -6 12 24 -20 -7 4 1 4 -1 -6 0 -4 -7 -9 3 3 8 3 -3 1 -3 5 -7 -6 1 -3 -1 -2
-2 -2 1 6 3 -4 -6 -4 -1 -2 -1 -2 -1 1 -0 2 -7 -7 38 9 -5 -6 -4 5 7 -2 -3 -1 -7 -10 -3 0 16 -16 2 1 -10 2 2 3 -5 0 -3 -5 0
-3 -1 -0 -2 -1 -1 2 -0 -2 -2 -2 -4 -2 -0 -1 -1 -6 38 -17 10 4 -4 -1 8 -1 -4 -5 -2 -5 -3 -2 12 -1 6 -0 -10 -2 -11 -5 -2 5 2 1 -1 -3
-5 -6 -2 -4 3 4 4 -1 -0 0 -1 -1 2 -1 1 -3 -22 -5 8 -2 -1 0 -0 1 -0 -8 6 -7 3 -15 2 8 12 -1 -8 -2 -2 1 13 -10 1 6 2 -0 -9
1 1 2 1 -1 -2 -3 2 5 3 1 -1 -2 -4 0 -15 21 9 5 -1 3 6 4 -2 -5 2 0 -5 -8 -10 9 4 2 0 -5 -16 8 8 -11 3 8 8 -7 3 -3
0 1 1 0 -1 -1 2 2 -1 -0 1 -0 1 -2 -10 -39 24 -9 -0 8 1 5 5 2 8 2 -14 -6 -15 2 0 3 2 7 -10 -22 17 -10 10 1 1 2 -3 -2 -3
-1 -0 0 1 1 -1 -1 1 1 -3 -4 -0 -2 -2 -26 57 8 -7 -1 7 -5 1 -1 8 8 -13 3 12 -2 1 -5 -7 7 10 -14 -12 1 -14 11 6 -1 -0 -4 -4 6
-1 -1 0 -1 -1 -2 0 3 -3 -1 3 3 -6 -13 -32 48 -27 18 -2 12 2 8 12 7 9 -4 -11 1 -0 -3 -5 -6 14 8 -5 -2 -1 2 9 -2 1 -1 -6 -2 0
0 0 1 2 2 -2 -2 1 -11 -0 -1 -3 -1 -11 5 16 4 12 -12 15 -8 -1 2 6 -5 -8 1 -1 -5 -4 -16 -6 3 5 -2 1 -0 16 3 -6 2 -6 -1 -1 2
7 7 5 0 2 -1 6 -3 -7 -2 2 -2 -5 5 -7 -2 24 16 -7 10 -0 6 -4 0 -6 -17 -15 -9 -29 -2 -1 4 7 -5 6 0 4 -5 9 -7 -3 1 -1 -2 -3
-1 -1 1 4 2 -6 13 -0 -2 -3 13 6 -5 -2 -8 14 -7 11 7 4 2 3 -6 9 -14 -66 31 14 9 11 -5 -5 17 4 -6 2 -5 3 9 -9 1 0 0 1 -1
-4 -3 -4 0 -1 -1 -6 -8 5 -9 7 0 2 -2 11 -8 7 -1 15 7 5 1 9 -18 -71 50 11 11 6 5 -11 -1 12 3 -4 1 -6 -1 1 2 1 -1 3 0 2
-8 -5 -3 -4 -5 -3 -10 1 -0 3 -14 37 -2 1 22 -34 11 16 7 2 5 -1 -10 -20 49 12 -3 1 -4 -5 -4 14 -7 -0 1 -7 -7 -3 8 -2 -1 1 1 2 -4
-7 -6 -5 1 -2 -5 -8 4 -9 -0 -15 25 4 18 6 -9 -32 37 6 3 -6 10 4 -27 17 -2 -4 -9 8 -23 25 9 5 -5 -1 5 -19 -2 2 -1 -4 4 1 4 -2
-5 -5 -5 -13 5 -8 -4 1 -3 2 -25 4 3 -9 -5 -2 -7 22 34 -4 -4 8 -11 27 18 2 -10 15 -2 22 11 11 5 -4 -2 6 -23 30 -5 -4 1 5 8 -0 -2
-4 -6 -5 -2 -3 4 5 0 -1 -1 -27 4 8 9 7 -1 3 4 -12 0 7 -2 -1 1 3 -16 14 12 7 21 17 -1 -7 -9 -14 8 -14 19 7 7 4 5 -1 -0 -2
-4 -4 -3 -2 4 -3 5 0 -5 -17 9 1 -3 5 9 4 8 3 8 -16 -2 -9 -4 6 4 2 -8 0 -4 -7 -5 -6 -12 -15 1 10 -17 11 4 -5 3 3 1 -1 -4
-4 -2 -4 -0 -4 2 5 -3 -8 9 7 -4 2 1 5 13 1 12 7 3 3 5 4 10 -8 -7 7 -1 7 4 -8 -5 -5 -8 6 -2 -23 12 22 -14 4 1 1 -1 -2
-2 -5 -4 -0 -1 1 3 -1 4 8 -6 -2 6 5 17 9 12 10 11 10 3 -2 -10 7 -11 -4 5 2 1 9 -24 20 -1 -4 -6 -10 2 4 11 -5 2 5 5 -5 -2
-3 -1 -1 -1 -0 1 3 2 1 -0 -3 -1 -3 -10 8 14 15 14 8 8 -4 -3 -10 2 2 -3 17 -3 -13 -18 12 -10 -8 -11 -8 -10 1 6 -9 -0 3 3 -1 -2 -2
-4 -3 1 6 -0 1 1 1 -0 -5 -0 -3 -2 -12 -7 7 13 4 5 4 -6 -2 -6 13 4 11 -15 -27 8 -8 -16 -13 -0 -10 2 1 -0 12 1 -1 3 -0 -3 -1 -1
-4 -3 -0 2 -2 -0 -1 -2 -2 -0 2 0 5 3 3 1 10 3 -2 7 8 9 -9 -8 -6 -1 12 11 6 1 -9 -1 -15 0 2 -9 9 9 -1 4 -0 -0 -3 -2 -1
-3 -3 2 3 11 -4 5 -0 -2 -1 3 2 1 -1 -1 -2 -2 8 5 4 0 5 -1 -7 -14 5 2 -8 -17 -27 -6 9 -3 0 -2 1 23 3 -1 2 1 -2 -2 -3 -2
-0 -2 -3 -0 -1 2 2 -1 -1 0 -1 -0 1 4 1 2 -1 14 3 4 3 2 0 -8 -10 -3 4 25 20 5 -2 -4 1 -12 12 -10 10 -3 -1 5 1 -1 -1 -2 0
-5 -2 -1 3 3 -3 -4 -0 -0 -1 -4 1 1 -1 -1 3 -4 -2 11 7 6 -2 -2 -3 6 1 9 6 -2 -10 3 -5 -17 10 -8 13 6 7 3 3 3 2 -2 -2 3
-4 -2 1 -0 -5 -2 -4 -3 -1 -1 -2 -2 -0 -1 -1 3 -0 -12 1 5 1 1 -3 -0 6 4 10 4 0 -1 -2 -11 -3 -3 -2 -1 4 4 4 -6 3 4 -1 -2 1
-2 -3 -1 -1 -0 2 1 -1 -2 2 -1 -3 -2 -1 -1 -3 4 -0 -3 3 4 -1 -2 6 -2 4 14 2 5 -24 3 1 4 -5 17 -12 16 2 4 -2 2 3 -1 -0 -1
Height
5791 5792 5793 5794 5796 5797 5798 5800 5802 5803 5806 5808 5811 5813 5817 5821 5825 5827 5834 5838 5828 5833 5841 5844 5845 5846 5847 5848 5848 5849 5847 5853 5860 5858 5860 5856 5855 5854 5849 5848 5846 5846 5844 5842 5840
5788 5787 5787 5787 5789 5791 5791 5792 5793 5794 5796 5798 5800 5802 5804 5808 5812 5814 5832 5823 5821 5822 5828 5834 5835 5835 5836 5839 5838 5840 5840 5846 5854 5850 5850 5848 5848 5849 5845 5843 5847 5843 5841 5837 5835
5781 5780 5780 5780 5779 5779 5782 5784 5785 5785 5786 5787 5789 5791 5794 5796 5799 5808 5811 5814 5815 5817 5819 5824 5824 5824 5827 5830 5833 5833 5831 5841 5843 5845 5840 5841 5842 5837 5839 5840 5843 5836 5836 5833 5831
5773 5772 5771 5771 5771 5772 5771 5771 5771 5774 5775 5777 5778 5780 5783 5785 5787 5792 5801 5803 5808 5809 5810 5815 5815 5815 5820 5821 5828 5821 5823 5829 5834 5833 5829 5832 5830 5834 5833 5832 5833 5829 5827 5825 5823
5766 5764 5763 5762 5761 5761 5761 5761 5761 5762 5763 5764 5766 5769 5772 5773 5779 5783 5790 5792 5795 5798 5799 5802 5805 5808 5810 5815 5817 5810 5818 5819 5820 5821 5824 5824 5824 5821 5822 5829 5823 5819 5818 5816 5817
5759 5757 5755 5753 5751 5750 5749 5748 5748 5749 5751 5752 5753 5754 5758 5762 5771 5773 5774 5779 5782 5786 5790 5792 5797 5800 5801 5802 5805 5806 5807 5808 5809 5813 5817 5818 5816 5809 5818 5815 5808 5807 5807 5808 5811
5749 5746 5744 5742 5741 5739 5737 5736 5736 5736 5736 5738 5739 5741 5746 5758 5758 5763 5759 5765 5770 5775 5780 5784 5786 5786 5790 5792 5793 5795 5794 5797 5802 5807 5808 5810 5799 5805 5809 5800 5792 5795 5798 5802 5807
5736 5733 5730 5727 5725 5723 5723 5722 5721 5723 5723 5724 5726 5727 5733 5742 5744 5747 5751 5754 5757 5762 5768 5772 5772 5773 5774 5778 5781 5784 5786 5788 5796 5802 5803 5802 5785 5798 5798 5790 5788 5788 5791 5796 5800
5719 5715 5711 5708 5705 5703 5701 5699 5701 5704 5706 5707 5710 5713 5721 5724 5731 5735 5736 5741 5740 5745 5750 5754 5756 5761 5764 5766 5770 5771 5776 5782 5788 5796 5797 5794 5779 5794 5789 5784 5783 5784 5788 5793 5793
5704 5698 5692 5687 5682 5678 5675 5671 5675 5679 5684 5686 5691 5699 5705 5707 5714 5719 5724 5729 5731 5733 5735 5738 5741 5745 5751 5752 5754 5766 5772 5777 5778 5791 5786 5782 5775 5783 5786 5779 5782 5785 5787 5788 5788
5681 5674 5667 5660 5652 5647 5646 5642 5649 5651 5656 5661 5671 5679 5685 5690 5695 5700 5710 5713 5718 5719 5722 5728 5729 5731 5745 5750 5754 5759 5763 5766 5775 5780 5774 5775 5769 5777 5779 5776 5781 5782 5784 5784 5784
5657 5649 5640 5631 5622 5614 5609 5607 5613 5617 5625 5630 5641 5654 5663 5667 5676 5679 5692 5701 5705 5709 5715 5715 5716 5734 5734 5737 5744 5748 5754 5759 5772 5771 5767 5768 5764 5770 5773 5775 5776 5778 5780 5780 5779
5631 5620 5611 5604 5598 5593 5589 5588 5586 5585 5587 5608 5612 5629 5639 5643 5657 5665 5672 5686 5692 5696 5701 5707 5721 5722 5722 5729 5733 5741 5746 5757 5763 5762 5759 5758 5755 5762 5769 5769 5770 5775 5775 5775 5774
5609 5600 5594 5589 5582 5576 5575 5573 5568 5566 5563 5581 5590 5596 5606 5620 5635 5649 5657 5669 5676 5685 5693 5697 5707 5706 5708 5716 5726 5732 5743 5748 5754 5753 5751 5752 5746 5757 5762 5764 5768 5771 5770 5771 5769
5595 5588 5581 5573 5570 5563 5561 5558 5557 5557 5553 5565 5563 5566 5580 5598 5619 5632 5641 5650 5662 5673 5681 5691 5699 5701 5703 5709 5718 5723 5735 5739 5744 5742 5741 5745 5741 5756 5756 5760 5765 5766 5767 5765 5763
5584 5576 5569 5561 5555 5553 5551 5547 5547 5548 5549 5555 5549 5553 5562 5572 5593 5608 5622 5633 5648 5659 5671 5677 5684 5689 5697 5703 5709 5717 5721 5729 5734 5735 5727 5742 5743 5748 5755 5758 5760 5761 5760 5761 5760
5572 5564 5556 5548 5545 5540 5540 5538 5539 5538 5545 5540 5542 5547 5550 5560 5570 5587 5606 5617 5633 5645 5655 5663 5671 5681 5689 5695 5699 5706 5715 5719 5723 5722 5720 5743 5738 5743 5751 5752 5755 5756 5757 5757 5756
5562 5553 5545 5538 5532 5530 5529 5530 5529 5532 5532 5533 5539 5544 5548 5552 5557 5571 5589 5603 5617 5632 5642 5653 5662 5671 5681 5688 5696 5704 5711 5714 5717 5722 5725 5738 5729 5740 5749 5748 5750 5752 5753 5754 5753
5553 5544 5535 5529 5523 5520 5520 5522 5524 5524 5525 5528 5535 5538 5541 5544 5552 5556 5570 5587 5597 5615 5629 5641 5650 5663 5674 5683 5690 5697 5698 5712 5714 5716 5718 5728 5731 5739 5742 5744 5747 5751 5752 5750 5749
5547 5537 5529 5522 5517 5514 5515 5517 5518 5519 5520 5521 5527 5532 5533 5538 5545 5548 5558 5571 5584 5603 5617 5633 5640 5653 5662 5672 5680 5688 5698 5702 5704 5706 5710 5717 5727 5735 5738 5740 5745 5748 5748 5746 5747
5541 5533 5526 5522 5519 5517 5516 5516 5515 5515 5515 5519 5523 5528 5529 5530 5538 5541 5547 5560 5573 5590 5608 5620 5628 5644 5652 5661 5671 5679 5681 5688 5697 5698 5703 5710 5723 5731 5734 5737 5742 5743 5743 5743 5743
5538 5531 5525 5522 5521 5518 5517 5516 5514 5511 5510 5513 5517 5522 5524 5526 5529 5536 5542 5553 5567 5578 5593 5608 5618 5634 5648 5655 5665 5672 5678 5688 5694 5699 5703 5709 5720 5725 5730 5734 5737 5739 5740 5740 5740
5537 5530 5525 5522 5519 5518 5517 5516 5515 5513 5511 5510 5512 5515 5518 5522 5526 5532 5538 5545 5555 5569 5581 5597 5608 5626 5637 5643 5653 5661 5671 5678 5683 5687 5695 5706 5716 5720 5725 5730 5733 5736 5737 5737 5738
5537 5530 5523 5520 5518 5518 5517 5516 5515 5514 5513 5512 5511 5513 5515 5519 5522 5531 5536 5543 5548 5558 5572 5588 5602 5617 5630 5642 5651 5654 5659 5667 5673 5679 5694 5704 5711 5716 5721 5727 5730 5734 5734 5734 5735
5535 5528 5521 5516 5517 5517 5517 5516 5515 5514 5512 5512 5512 5512 5514 5516 5518 5524 5532 5540 5545 5552 5565 5581 5599 5612 5624 5632 5639 5647 5657 5665 5670 5683 5689 5702 5709 5713 5718 5724 5728 5730 5732 5732 5732
5537 5529 5522 5517 5517 5517 5517 5515 5514 5514 5513 5511 5511 5510 5511 5514 5515 5517 5525 5535 5540 5548 5559 5574 5589 5603 5619 5626 5633 5639 5646 5656 5666 5679 5687 5695 5703 5710 5715 5718 5724 5728 5730 5730 5730
5540 5533 5527 5523 5521 5519 5517 5516 5515 5513 5512 5510 5510 5509 5508 5510 5512 5514 5518 5526 5535 5544 5553 5566 5579 5594 5610 5617 5625 5632 5647 5653 5661 5673 5684 5690 5702 5706 5711 5715 5721 5725 5728 5728 5728